Flag for Germany Weather past 2 weeks in Bamberg, Bavaria, Germany

Now
49 °F

Overcast.


Feels Like: 49 °F
Forecast: 40 / 58 °F
Wind: 2 mph from Northwest

Location: Bamberg

Current Time: Sep 23, 2014 at 12:18:59 AM

Latest Report: Sep 23, 2014 at 12:00 AM


Visibility: 19 mi

Pressure: 30.11 "Hg

Humidity: 86%

Dew point: 45 °F

Location of BambergLocation

Historic Weather in Bamberg — Graph

°F

Bamberg temperature yesterday

Maximum temperature yesterday: 57 °F (at 3:00 PM)
Minimum temperature yesterday: 47 °F (at 4:00 AM)
Average temperature yesterday: 51 °F

Past Weeks' High & Low Weather Summary

 TemperatureHumidityPressure
High76 °F (Sep 18, 4:00 PM)100% (Sep 8, 12:00 AM)30.14 "Hg (Sep 8, 12:00 AM)
Low43 °F (Sep 11, 5:00 AM)47% (Sep 9, 5:00 PM)29.87 "Hg (Sep 18, 5:00 PM)
Average59 °F89%30.01 "Hg
* Reported Midnight between Sep 7 and Sep 8 — Sep 22 11:00 PM, Bamberg, Weather by CustomWeather, © 2014

Note: Actual official high and low records may vary slightly from our data, if they occured in-between our weather recording intervals... More about our weather records

Advertising

Bamberg weather history for previous 24 hours

 ConditionsComfort  
Time TempWeatherWind HumidityBarometerVisibility
11:00 PM
Sep 22
49 °FOvercast.2 mph87%30.11 "Hg22 mi
10:00 PM49 °FOvercast.1 mph85%30.11 "Hg22 mi
9:00 PM48 °FOvercast.1 mph88%30.10 "Hg19 mi
8:00 PM48 °FPassing clouds.2 mph89%30.09 "Hg25 mi
7:00 PM50 °FOvercast.3 mph81%30.06 "Hg34 mi
6:00 PM51 °FPassing clouds.3 mph81%30.03 "Hg34 mi
5:00 PM51 °FOvercast.3 mph88%30.01 "Hg19 mi
4:00 PM47 °FLow clouds.2 mph96%30.01 "Hg12 mi
3:00 PM57 °FPartly sunny.5 mph78%29.96 "Hg11 mi
2:00 PM55 °FOvercast.6 mph77%29.99 "Hg9 mi
1:00 PM56 °FOvercast.3 mph81%30.00 "Hg8 mi
12:00 PM54 °FOvercast.5 mph84%30.03 "Hg9 mi
11:00 AM52 °FPartly sunny.3 mph94%30.04 "Hg5 mi
10:00 AM53 °FOvercast.3 mph87%30.04 "Hg8 mi
9:00 AM52 °FOvercast.2 mph92%30.03 "Hg6 mi
8:00 AM51 °FOvercast.2 mph96%30.05 "Hg6 mi
7:00 AM51 °FPassing clouds.1 mph95%30.05 "Hg5 mi
6:00 AM50 °FFog.1 mph97%30.05 "Hg4 mi
5:00 AM50 °FOvercast.1 mph100%30.04 "Hg6 mi
4:00 AM47 °FFog.1 mph100%30.04 "Hg3 mi
3:00 AM50 °FFog.1 mph98%30.05 "Hg4 mi
2:00 AM52 °FPassing clouds.1 mph95%30.04 "Hg10 mi
1:00 AM53 °FPassing clouds.2 mph95%30.03 "Hg16 mi
12:00 AM55 °FPassing clouds.3 mph92%30.02 "Hg17 mi
Weather by CustomWeather, © 2014

See weather overviewHow to use our weather pages